This is the latest recevied weather packets stored in our database for station/object OE2SWM. If no packets are shown the sender has not sent any weather packets the latest 1 day(s).
| Time | Temp. | Humidity | Pressure | Rain* | Wind** | Luminosity | Snow |
|---|---|---|---|---|---|---|---|
| 1778119800 | 5.56° C | 91% | 966 hPa | 0 mm | - | - | - |
| 1778119200 | 5.56° C | 92% | 966 hPa | 0 mm | - | - | - |
| 1778117400 | 5.56° C | 90% | 966 hPa | 0 mm | - | - | - |
| 1778116800 | 5° C | 94% | 966 hPa | 0 mm | - | - | - |
| 1778116200 | 5.56° C | 91% | 966 hPa | 0 mm | - | - | - |
| 1778115600 | 5.56° C | 89% | 966 hPa | 0 mm | - | - | - |
| 1778115000 | 5.56° C | 90% | 966 hPa | 0 mm | - | - | - |
| 1778114400 | 5.56° C | 92% | 966 hPa | 0 mm | - | - | - |
| 1778113200 | 5.56° C | 87% | 966 hPa | 0 mm | - | - | - |
| 1778112600 | 5.56° C | 90% | 966 hPa | 0 mm | - | - | - |
| 1778106000 | 8.89° C | 82% | 966 hPa | 0 mm | - | - | - |
| 1778103600 | 10.56° C | 78% | 965 hPa | 0 mm | - | - | - |
| 1778102400 | 10.56° C | 78% | 965 hPa | 0 mm | - | - | - |
| 1778097600 | 12.78° C | 70% | 964 hPa | 0 mm | - | - | - |
| 1778096400 | 12.78° C | 68% | 964 hPa | 0 mm | - | - | - |
| 1778094600 | 13.89° C | 64% | 964 hPa | 0 mm | - | - | - |
| 1778092200 | 13.89° C | 63% | 963 hPa | 0 mm | - | - | - |
| 1778089200 | 15° C | 63% | 963 hPa | 0 mm | - | - | - |
| 1778085000 | 16.67° C | 57% | 962 hPa | 0 mm | - | - | - |
| 1778079000 | 16.67° C | 55% | 963 hPa | 0 mm | - | - | - |
| 1778076600 | 17.78° C | 54% | 963 hPa | 0 mm | - | - | - |
| 1778074200 | 18.89° C | 52% | 963 hPa | 0 mm | - | - | - |
| 1778070600 | 17.78° C | 52% | 963 hPa | 0 mm | - | - | - |
| 1778069400 | 17.78° C | 52% | 963 hPa | 0 mm | - | - | - |
| 1778068200 | 17.78° C | 51% | 963 hPa | 0 mm | - | - | - |
* Rain latest hour (hover to see other rain measurements)
** Current wind speed in m/s (hover to see current wind gust speed)